FREGAT R/B, 41106

Orbit data source: Space-Track

FREGAT R/B, 41106 is space debris in GEO originally from a launch on Fri, 11 Dec 2015 UTC launched from the Tyuratam Missile And Space Complex (TTMTR). Debris objects in space refer to the collection of defunct objects orbiting the Earth. Examples of debris include non-operational satellites, rocket bodies, and fragments generated from explosions, collisions, or faulty payload assembly.

Loading next visibility...
Identifier
41106, 2015-074B
Orbit
GEO
Country
Flag of CISCIS
Related business
Manufacturer
Lavochkin
Mission
Spacecraft
Bus & Motor
FREGAT, Unknown motor
Mass
1,000 kg wet, 1,000 kg dry
Launch date (UTC)
2015-12-11 (10 years ago)
Launch vehicle
Unknown
Launch site
Tyuratam Missile And Space Complex (TTMTR)
Object type
Payload
Rocket body
Debris
Shape & HBR
Cyl, 1.6 m
Radar Cross Section
8.683 m²

Expand to show TLE details & history
Last TLE update: 2 days ago

TLE from 2 days ago
0 FREGAT R/B
1 41106U 15074B   25259.45940262 -.00000292  00000-0  00000-0 0  9998
2 41106   7.4777  64.9945 0196475 351.6021   8.2096  1.02895528 36692
Epoch: 2025-09-16T11:01Z
TLE epoch observation values (Epoch: 2025-09-16T11:01:32.386Z)
Latitude
-0°
Longitude
-95.90346°
Altitude
34,263.409 km
Speed
3.162 km/s
True Right ascension
04h 20m 31s
True Declination
0° 00' 00"
Sunlit
Object was in daylight at epoch
Visualization orbit readout
Latitude
Unknown
Longitude
Unknown
Altitude
Unknown
Speed
Unknown
Apparent Right ascension
Unknown
Apparent Declination
Unknown
Sunlit
N/A
Visualization observer readout
Local Sidereal Time
17:40:59
Azimuth
Unknown
Elevation
Unknown
Doppler factor
Unknown
Orbital elements
Apogee altitude
35,882.109 km
Perigee altitude
34,253.491 km
Semi-major axis
41,445.937 km
Eccentricity
0.01965
Inclination
7.4777°
RAAN
64.9945°
Arg. of periapsis
351.6021°
True anomaly
8.53909°
Mean anomaly
8.2096°
Eccentric anomaly
8.37353°
Mean motion
0.25723 °/min
Orbital period
1,399.53 mins
BSTAR
0
Loading maneuver chart data...
Computing Atmospheric mass density...
Loading historical data...
Loading historical data...
Loading historical data...
Loading historical data...
Loading historical data...
Loading historical data...
Loading historical data...

Documentation

Showing up to 5 results
|